This is the latest recevied weather packets stored in our database for station/object IN3XSV-15. If no packets are shown the sender has not sent any weather packets the latest 10 day(s).
| Time | Temp. | Humidity | Pressure | Rain* | Wind** | Luminosity | Snow |
|---|---|---|---|---|---|---|---|
| 1777898100 | 11.67° C | 66% | 860.6 hPa | 0 mm | - | - | - |
| 1777897801 | 11.67° C | 66% | 860.6 hPa | 0 mm | - | - | - |
| 1777897501 | 11.67° C | 67% | 860.6 hPa | 0 mm | - | - | - |
| 1777897201 | 11.11° C | 66% | 860.7 hPa | 0 mm | - | - | - |
| 1777896901 | 11.67° C | 66% | 860.5 hPa | 0 mm | - | - | - |
| 1777896601 | 11.67° C | 65% | 860.5 hPa | 0 mm | - | - | - |
| 1777896301 | 11.67° C | 65% | 860.4 hPa | 0 mm | - | - | - |
| 1777896001 | 11.67° C | 66% | 860.6 hPa | 0 mm | - | - | - |
| 1777895701 | 11.67° C | 66% | 860.5 hPa | 0 mm | - | - | - |
| 1777895401 | 11.67° C | 66% | 860.5 hPa | 0 mm | - | - | - |
| 1777895101 | 12.22° C | 65% | 860.5 hPa | 0 mm | - | - | - |
| 1777894801 | 11.67° C | 66% | 860.5 hPa | 0 mm | - | - | - |
| 1777894501 | 11.67° C | 66% | 860.5 hPa | 0 mm | - | - | - |
| 1777894201 | 11.67° C | 66% | 860.5 hPa | 0 mm | - | - | - |
| 1777893901 | 11.67° C | 65% | 860.6 hPa | 0 mm | - | - | - |
| 1777893601 | 12.22° C | 64% | 860.5 hPa | 0 mm | - | - | - |
| 1777893301 | 12.22° C | 64% | 860.6 hPa | 0 mm | - | - | - |
| 1777893001 | 12.78° C | 64% | 860.6 hPa | 0 mm | - | - | - |
| 1777892701 | 12.78° C | 64% | 860.5 hPa | 0 mm | - | - | - |
| 1777892401 | 12.22° C | 65% | 860.6 hPa | 0 mm | - | - | - |
| 1777892101 | 12.22° C | 63% | 860.6 hPa | 0 mm | - | - | - |
| 1777891801 | 12.22° C | 63% | 860.5 hPa | 0 mm | - | - | - |
| 1777891501 | 12.78° C | 63% | 860.7 hPa | 0 mm | - | - | - |
| 1777891201 | 12.78° C | 62% | 860.4 hPa | 0 mm | - | - | - |
| 1777890901 | 12.78° C | 62% | 860.5 hPa | 0 mm | - | - | - |
* Rain latest hour (hover to see other rain measurements)
** Current wind speed in m/s (hover to see current wind gust speed)